Starlink 31300

operational
NORAD ID: 58878 Int'l Des: 2024-020 Owner: SPXS Country: US Constellation: starlink
LEOCIRCULAR

Starlink 31300について

説明を読み込み中...

リアルタイム位置

3D地球を読み込み中...

次回通過

高度履歴

Altitude vs Time

uPlot chart will show altitude changes over time

軌道要素

1 58878U 24020C 25352.23974297 -.00001603 00000-0 -42037-4 0 9996
2 58878 53.1619 340.5456 0001649 74.8226 285.2957 15.30179837105603
Epoch: Dec 18, 2025 • Age: 14 hours

現在のステータス

高度 476.0 km
速度 7.63 km/s
衛星直下点 29.05°N, 25.81°W
打ち上げ日 Jan 29, 2024
運用期間 1.8 years
タイプ internet

技術仕様

分類 Payload
質量 730.00 kg
乾燥質量 700.00 kg
総質量 730.00 kg
長さ 0.30 m
直径 4.10 m
スパン 29.00 m
形状 Box + pan
製造者 SPXS
バスタイプ Starlink V2M
フェーズステータス In Orbit
所有者/国 SPXS/US

大規模コンステレーション

Loading constellations...